Flag for Germany Weather past 2 weeks in Leverkusen, North Rhine-Westphalia, Germany

52 °F

Light rain. Passing clouds.

Feels Like: 52 °F
Forecast: 43 / 59 °F
Wind: 1 mph from North

Location: Koeln / Bonn

Current Time: Oct 9, 2015 at 7:26:15 AM

Latest Report: Oct 9, 2015 at 6:50 AM

Visibility: 5 mi

Pressure: 30.15 "Hg

Humidity: 100%

Dew point: 52 °F

Location of LeverkusenLocation

Historic Weather in Leverkusen — Graph


Leverkusen temperature yesterday

Maximum temperature yesterday: 57 °F (at 12:20 AM)
Minimum temperature yesterday: 52 °F (at 7:20 AM)
Average temperature yesterday: 54 °F

Past Weeks' High & Low Weather Summary

High70 °F (Oct 2, 3:50 PM)100% (Sep 25, 11:50 PM)30.63 "Hg (Sep 25, 11:50 PM)
Low36 °F (Oct 2, 4:50 AM)37% (Sep 30, 4:50 PM)29.59 "Hg (Oct 6, 4:50 PM)
Average54 °F80%30.19 "Hg
* Reported Sep 24 6:20 AM — Oct 9 6:20 AM, Leverkusen, Weather by CustomWeather, © 2015

Note: Actual official high and low records may vary slightly from our data, if they occured in-between our weather recording intervals... More about our weather records


Leverkusen weather history for previous 24 hours

Time TempWeatherWind HumidityBarometerVisibility
6:20 AM
Fri, Oct 9
52 °FPartly cloudy.2 mph100%30.15 "Hg5 mi
5:50 AM52 °FPassing clouds.2 mph100%30.15 "Hg5 mi
5:20 AM52 °FLight rain. Partly cloudy.1 mph100%30.15 "HgN/A
4:50 AM52 °FLight rain. Passing clouds.1 mph100%30.18 "HgN/A
4:20 AM52 °FPassing clouds.2 mph100%30.18 "HgN/A
3:50 AM52 °FPassing clouds.1 mph100%30.18 "HgN/A
3:20 AM52 °FPassing clouds.2 mph100%30.18 "HgN/A
2:50 AM54 °FLight rain. Passing clouds.1 mph100%30.18 "HgN/A
2:20 AM54 °FLight rain. Passing clouds.2 mph100%30.18 "HgN/A
1:50 AM54 °FPassing clouds.1 mph100%30.18 "HgN/A
1:20 AM54 °FPassing clouds.2 mph100%30.18 "HgN/A
12:50 AM54 °FLight rain. Low clouds.2 mph100%30.18 "HgN/A
12:20 AM54 °FLow clouds.1 mph100%30.18 "HgN/A
11:50 PM
Thu, Oct 8
54 °FLow clouds.2 mph100%30.18 "HgN/A
11:20 PM52 °FPassing clouds.1 mph100%30.18 "HgN/A
10:50 PM52 °FPassing clouds.2 mph100%30.18 "HgN/A
10:20 PM52 °FPassing clouds.2 mph100%30.18 "HgN/A
9:50 PM52 °FPassing clouds.3 mph100%30.18 "HgN/A
9:20 PM54 °FPassing clouds.2 mph100%30.18 "Hg6 mi
8:50 PM54 °FPassing clouds.1 mph100%30.18 "HgN/A
8:20 PM52 °FPassing clouds.3 mph100%30.18 "HgN/A
7:50 PM52 °FBroken clouds.2 mph100%30.18 "HgN/A
7:20 PM52 °FPartly sunny.5 mph100%30.18 "HgN/A
6:50 PM54 °FPartly sunny.6 mph94%30.15 "Hg6 mi
6:20 PM54 °FBroken clouds.8 mph100%30.15 "Hg5 mi
5:50 PM54 °FPartly sunny.7 mph94%30.15 "Hg5 mi
5:20 PM54 °FDrizzle. Broken clouds.8 mph100%30.15 "Hg4 mi
4:50 PM54 °FDrizzle. Fog.5 mph100%30.15 "Hg3 mi
4:20 PM54 °FDrizzle. Fog.6 mph100%30.15 "Hg2 mi
3:50 PM54 °FDrizzle. Fog.5 mph100%30.15 "Hg2 mi
3:20 PM54 °FDrizzle. Fog.7 mph94%30.15 "Hg3 mi
2:50 PM54 °FDrizzle. Fog.7 mph100%30.15 "Hg3 mi
2:20 PM54 °FDrizzle. Fog.9 mph100%30.15 "Hg2 mi
1:50 PM54 °FDrizzle. Fog.7 mph100%30.12 "Hg2 mi
1:20 PM54 °FDrizzle. Fog.7 mph100%30.12 "Hg2 mi
12:50 PM54 °FDrizzle. Fog.6 mph100%30.12 "Hg3 mi
12:20 PM54 °FDrizzle. Fog.8 mph100%30.12 "Hg3 mi
11:50 AM54 °FDrizzle. Fog.8 mph100%30.12 "Hg3 mi
11:20 AM54 °FDrizzle. Fog.8 mph100%30.12 "Hg2 mi
10:50 AM54 °FDrizzle. Fog.9 mph100%30.12 "Hg2 mi
10:20 AM52 °FDrizzle. Fog.10 mph100%30.09 "Hg1 mi
9:50 AM54 °FDrizzle. Fog.9 mph94%30.09 "Hg2 mi
9:20 AM54 °FDrizzle. Broken clouds.9 mph94%30.09 "Hg5 mi
8:50 AM54 °FDrizzle. Fog.6 mph100%30.07 "Hg2 mi
8:20 AM54 °FPartly cloudy.3 mph100%30.07 "Hg4 mi
7:50 AM52 °FDrizzle. Fog.5 mph100%30.07 "Hg2 mi
7:20 AM52 °FPartly cloudy.5 mph100%30.07 "Hg4 mi
Weather by CustomWeather, © 2015

See weather overviewHow to use our weather pages